[[{"header":{"parameterUnit":"m.s-1","parameterCategory":1,"la1":30.2991,"la2":30.254,"lo1":-89.0895,"lo2":-89.0444,"dy":0.0017,"dx":0.0017,"nx":28,"ny":28,"refTime":"2023-07-21T03:00:00:Z","depth":0,"parameterNumber":2,"parameterNumberName":"U-component_of_WINDS"},"data":[0,0,0,0,0,0,0,0,0,0,0,0,0,0,0,0,0,0,0,0,0,0,0,0,0,0,0,0,0,0,0,0,0,0,0,0,0,0,0,0,0,0,0,0,0,0,0,0,0,0,0,0,0,0,0,0,0,0,1.6043,1.6044,0,1.6171,1.6173,1.6174,1.6198,1.6197,1.6196,1.6195,1.6328,1.6332,1.6337,0,0,0,0,0,0,0,0,0,0,0,0,0,1.5819,1.5823,1.6042,1.6044,1.6046,1.6171,1.6173,1.6174,1.6198,1.6197,1.6196,1.6194,1.6326,1.6332,1.6337,0,0,0,0,0,0,0,0,0,0,0,0,0,1.5928,1.5824,1.6042,1.6073,1.6077,1.617,1.6173,1.6175,1.6198,1.6197,1.6195,1.6194,1.6325,1.6331,1.6338,1.6411,0,0,1.6359,1.6362,0,0,0,0,0,0,0,0,1.5922,1.5937,1.6067,1.6071,1.6075,1.6167,1.6142,1.6254,1.6199,1.6152,1.6195,1.6193,1.6276,1.6286,1.6314,1.6417,1.6423,1.6359,1.6363,1.6366,1.6368,0,0,0,0,0,0,0,1.5914,1.5931,1.6093,1.6068,1.6074,1.608,1.6094,1.6164,1.6221,1.6156,1.6158,1.6173,1.6278,1.6307,1.6317,1.6425,1.6359,1.6365,1.6369,1.6372,1.6593,1.6595,0,0,0,0,0,0,1.5901,1.5925,1.6089,1.6097,1.5993,1.6085,1.6101,1.6139,1.622,1.6231,1.6174,1.6174,1.6297,1.6309,1.6322,1.6412,1.6366,1.6373,1.6376,1.6592,1.6594,1.6596,0,0,0,0,0,0,1.5896,1.5916,1.6084,1.6012,1.6033,1.6091,1.6134,1.6142,1.6172,1.6234,1.6245,1.6194,1.6296,1.6312,1.6388,1.6417,1.6376,1.6382,1.6589,1.6592,1.6595,1.6592,0,0,0,0,0,0,1.589,1.5914,1.5942,1.6012,1.6037,1.6148,1.6135,1.6146,1.6183,1.6184,1.6255,1.6266,1.6296,1.6378,1.6395,1.6425,1.6387,1.6587,1.6591,1.6594,1.659,1.6595,1.6598,0,0,0,0,0,1.5882,1.5937,1.5943,1.5963,1.6074,1.6149,1.6164,1.6197,1.6186,1.6214,1.6254,1.6263,1.6411,1.6386,1.6405,1.6438,1.6585,1.659,1.6594,1.6588,1.6594,1.6598,0,0,0,0,0,0,1.5869,1.5946,1.5955,1.6034,1.6085,1.6153,1.619,1.6202,1.6258,1.6256,1.6296,1.6312,1.6385,1.6419,1.6389,1.6512,1.6498,1.6506,1.6487,1.6493,1.6497,1.6486,1.6393,0,0,0,0,0,1.5875,1.593,1.5995,1.6059,1.6084,1.6133,1.6167,1.6188,1.6243,1.6265,1.631,1.6363,1.6422,1.6459,1.6517,1.6596,1.6611,1.6628,1.6632,1.6635,1.6641,1.6684,1.6692,1.6609,1.6609,1.6609,0,0,1.5889,1.5938,1.597,1.6057,1.6099,1.6155,1.6151,1.621,1.6252,1.6274,1.6348,1.6383,1.6445,1.6522,1.6559,1.6553,1.6667,1.664,1.6642,1.6647,1.6689,1.6697,1.6704,1.6612,1.6612,1.6611,0,0,1.5942,1.5985,1.6042,1.6084,1.6148,1.618,1.6194,1.6261,1.6284,1.6359,1.6376,1.6427,1.6527,1.657,1.6605,1.6674,1.6684,1.6692,1.6713,1.6755,1.6761,1.6767,1.679,1.6798,1.6698,1.6698,1.6698,0,1.5951,1.6035,1.607,1.6129,1.6166,1.6188,1.6246,1.6285,1.6365,1.639,1.6383,1.6508,1.6551,1.6638,1.6655,1.6683,1.6699,1.6683,1.6757,1.6764,1.677,1.6792,1.6801,1.6698,1.6698,1.6698,1.6698,0,1.6042,1.6101,1.614,1.6214,1.6257,1.6315,1.6358,1.6396,1.6414,1.6447,1.6522,1.6575,1.6643,1.6665,1.6684,1.6755,1.6749,1.6749,1.6735,1.6777,1.6799,1.6808,1.6699,1.6699,1.6699,1.6699,0,0,1.609,1.6183,1.6197,1.6231,1.6302,1.6348,1.6407,1.6473,1.6505,1.6559,1.6609,1.6692,1.6693,1.6732,1.6756,1.6792,1.6842,1.6788,1.679,1.6795,1.6922,1.692,1.693,1.685,1.6851,1.6853,1.6916,0,1.615,1.6255,1.6288,1.6376,1.643,1.6452,1.6504,1.6553,1.6586,1.6636,1.6673,1.6731,1.6727,1.6751,1.6788,1.6828,1.6868,1.6824,1.6896,1.6898,1.6878,1.6942,1.6941,1.6998,1.6925,1.6927,1.6928,0,1.6234,1.6289,1.6382,1.6446,1.647,1.6516,1.6578,1.6626,1.6683,1.6704,1.6748,1.6768,1.6831,1.6814,1.69,1.6869,1.6901,1.6925,1.6928,1.6935,1.6914,1.6949,1.7017,1.7025,1.6942,1.6941,1.694,0,1.6258,1.6355,1.6423,1.6451,1.6528,1.656,1.6593,1.6648,1.6685,1.674,1.6765,1.6826,1.686,1.6907,1.6943,1.6928,1.7026,1.7012,1.7044,1.7043,1.7063,1.7061,1.7136,1.7086,1.7085,1.7085,1.7085,0,1.632,1.6376,1.6434,1.6475,1.6538,1.6576,1.6638,1.6672,1.6721,1.677,1.6794,1.6839,1.6885,1.6936,1.6965,1.7031,1.7047,1.7065,1.7072,1.7062,1.7059,1.7082,1.7079,1.7088,1.7087,1.7087,1.7086,0,1.6356,1.6397,1.6473,1.654,1.6558,1.6601,1.6658,1.6699,1.6733,1.6794,1.6811,1.6863,1.6925,1.6966,1.7045,1.7065,1.7136,1.7143,1.7116,1.7119,1.7148,1.7145,1.7239,1.7253,1.7195,1.7195,1.7196,0,1.6393,1.6436,1.6508,1.6542,1.6575,1.663,1.6668,1.6707,1.6745,1.6813,1.6846,1.6909,1.6961,1.7058,1.7104,1.7164,1.7172,1.7201,1.7181,1.7169,1.717,1.7167,1.7171,1.7203,1.7204,1.7204,1.7204,0,1.6453,1.6471,1.6525,1.6585,1.663,1.6679,1.6729,1.6756,1.6804,1.6846,1.6909,1.6949,1.7029,1.7091,1.7156,1.7191,1.7205,1.7211,1.7221,1.7211,1.7193,1.7201,1.7123,1.7208,1.7208,1.7207,1.7207,1.7207,1.649,1.6529,1.6585,1.6643,1.6685,1.6731,1.6772,1.6811,1.6864,1.6932,1.6952,1.7017,1.7073,1.7161,1.7197,1.7248,1.7245,1.7261,1.7264,1.7267,1.7266,1.7186,1.726,1.726,1.726,1.726,1.726,0,1.6549,1.6587,1.664,1.6709,1.6755,1.6765,1.6821,1.6859,1.6915,1.6966,1.7017,1.7089,1.7149,1.7199,1.7261,1.7292,1.7301,1.7307,1.7305,1.7312,1.7266,1.725,1.73,1.73,1.73,1.73,1.7299,1.7299,1.6586,1.6652,1.6677,1.6764,1.6801,1.6865,1.6895,1.6938,1.6978,1.7057,1.7107,1.7139,1.7189,1.7255,1.7311,1.7324,1.7345,1.735,1.7364,1.732,1.7316,1.7311,1.7296,1.7355,1.7355,1.7406,1.7407,1.7407]},{"header":{"parameterUnit":"m.s-1","parameterCategory":1,"la1":30.2991,"la2":30.254,"lo1":-89.0895,"lo2":-89.0444,"dy":0.0017,"dx":0.0017,"nx":28,"ny":28,"refTime":"2023-07-21T03:00:00:Z","depth":0,"parameterNumber":3,"parameterNumberName":"V-component_of_WINDS"},"data":[0,0,0,0,0,0,0,0,0,0,0,0,0,0,0,0,0,0,0,0,0,0,0,0,0,0,0,0,0,0,0,0,0,0,0,0,0,0,0,0,0,0,0,0,0,0,0,0,0,0,0,0,0,0,0,0,0,0,6.1108,6.1108,0,6.1102,6.1102,6.1102,6.1067,6.1066,6.1066,6.1065,6.1058,6.1058,6.1059,0,0,0,0,0,0,0,0,0,0,0,0,0,6.1091,6.1091,6.1108,6.1108,6.1108,6.1102,6.1102,6.1101,6.1067,6.1066,6.1065,6.1064,6.1058,6.1058,6.1059,0,0,0,0,0,0,0,0,0,0,0,0,0,6.1093,6.1091,6.1108,6.109,6.1089,6.1102,6.1102,6.1101,6.1067,6.1066,6.1065,6.1064,6.1057,6.1058,6.1059,6.1089,0,0,6.1062,6.1062,0,0,0,0,0,0,0,0,6.1093,6.1093,6.1093,6.1092,6.109,6.1084,6.1093,6.1097,6.1068,6.1076,6.1065,6.1063,6.1067,6.1067,6.1069,6.1089,6.1088,6.1062,6.1062,6.1063,6.1063,0,0,0,0,0,0,0,6.1093,6.1093,6.1106,6.1093,6.1091,6.1082,6.1081,6.1093,6.1078,6.1075,6.1072,6.1072,6.1066,6.1068,6.1068,6.1088,6.1062,6.1062,6.1063,6.1063,6.113,6.1132,0,0,0,0,0,0,6.1095,6.1094,6.1106,6.1105,6.1088,6.1084,6.1082,6.1087,6.1078,6.1076,6.1073,6.107,6.1067,6.1067,6.1068,6.1101,6.1063,6.1063,6.1064,6.1129,6.1131,6.1132,0,0,0,0,0,0,6.1095,6.1096,6.1106,6.1099,6.1099,6.1085,6.1091,6.1088,6.1089,6.1077,6.1074,6.1078,6.1066,6.1067,6.1084,6.11,6.1064,6.1065,6.1128,6.113,6.1131,6.1168,0,0,0,0,0,0,6.1094,6.1097,6.1108,6.1099,6.11,6.1122,6.1092,6.1088,6.1091,6.1087,6.108,6.1078,6.1065,6.1082,6.1084,6.1101,6.1065,6.1126,6.1128,6.1131,6.1165,6.1171,6.1176,0,0,0,0,0,6.1094,6.1119,6.1109,6.111,6.1114,6.1123,6.1123,6.1108,6.1092,6.1103,6.1095,6.1078,6.1099,6.1085,6.1086,6.1103,6.1125,6.1128,6.1131,6.1163,6.117,6.1176,0,0,0,0,0,0,6.113,6.1117,6.1106,6.1129,6.1127,6.1117,6.1131,6.1116,6.1119,6.1116,6.1097,6.1096,6.1115,6.1111,6.1096,6.1131,6.1109,6.1112,6.1133,6.1139,6.1144,6.1144,6.1066,0,0,0,0,0,6.1141,6.1149,6.1138,6.1159,6.1159,6.1145,6.1149,6.1137,6.1135,6.1134,6.1127,6.1125,6.1131,6.1135,6.114,6.1165,6.1162,6.1178,6.1183,6.1187,6.119,6.1202,6.1208,6.1141,6.1141,6.1141,0,0,6.1163,6.1157,6.1164,6.1166,6.1164,6.1173,6.1145,6.1156,6.1162,6.1135,6.115,6.1145,6.1142,6.1163,6.1172,6.116,6.1208,6.1191,6.1195,6.1195,6.1205,6.1212,6.1217,6.1143,6.1143,6.1143,0,0,6.1207,6.1204,6.1221,6.1219,6.1215,6.1205,6.121,6.1202,6.1197,6.1212,6.1192,6.1199,6.121,6.1208,6.1208,6.1251,6.1235,6.1253,6.128,6.1292,6.1297,6.1302,6.1316,6.1321,6.1256,6.1256,6.1256,0,6.1235,6.1247,6.1231,6.1243,6.1244,6.1221,6.1237,6.1236,6.1234,6.1235,6.1223,6.1235,6.1231,6.125,6.126,6.1262,6.1265,6.1253,6.1298,6.1302,6.1306,6.1319,6.1325,6.1258,6.1258,6.1258,6.1258,0,6.1281,6.129,6.1304,6.1302,6.1305,6.132,6.1305,6.131,6.1298,6.129,6.1305,6.13,6.1302,6.1306,6.1295,6.1324,6.1316,6.1301,6.1278,6.1315,6.1327,6.1332,6.1262,6.1261,6.126,6.126,0,0,6.1347,6.1336,6.1341,6.134,6.1334,6.134,6.1353,6.1355,6.1359,6.1359,6.1369,6.1378,6.1363,6.1364,6.1353,6.1363,6.1396,6.1346,6.1346,6.1354,6.1425,6.1436,6.1442,6.1386,6.1386,6.1387,6.1425,0,6.1388,6.1409,6.1395,6.1418,6.1425,6.1403,6.1414,6.1411,6.1404,6.1409,6.1401,6.1407,6.1389,6.1389,6.1398,6.139,6.1409,6.1387,6.1393,6.1394,6.1394,6.1449,6.146,6.1496,6.143,6.1431,6.1431,0,6.1439,6.144,6.1464,6.1455,6.1458,6.1468,6.1468,6.1474,6.147,6.1464,6.1465,6.145,6.1461,6.144,6.1455,6.144,6.1442,6.1438,6.1439,6.1438,6.1414,6.1448,6.1507,6.1512,6.1439,6.1438,6.1438,0,6.1483,6.1491,6.1505,6.1505,6.1496,6.1503,6.15,6.1495,6.1497,6.1497,6.1498,6.1501,6.1501,6.1503,6.149,6.1475,6.1506,6.1483,6.1501,6.1501,6.1507,6.1507,6.1566,6.1511,6.1511,6.151,6.151,0,6.1529,6.1545,6.1525,6.1534,6.155,6.1533,6.1549,6.1544,6.1539,6.1547,6.1528,6.1535,6.1517,6.1522,6.1512,6.1525,6.1526,6.1521,6.1518,6.1522,6.1522,6.1522,6.1519,6.1512,6.1512,6.1511,6.1511,0,6.1581,6.1568,6.1583,6.1573,6.1571,6.1583,6.1574,6.1582,6.1573,6.1582,6.1584,6.157,6.1575,6.1562,6.1566,6.1558,6.1577,6.1571,6.1578,6.1576,6.1593,6.1591,6.1654,6.1661,6.1602,6.1602,6.1603,0,6.1611,6.1622,6.1613,6.1616,6.1613,6.1619,6.1621,6.1605,6.1608,6.1604,6.1612,6.1615,6.1617,6.1626,6.1617,6.1619,6.1612,6.1633,6.1612,6.1615,6.161,6.1609,6.161,6.1637,6.1638,6.1639,6.1639,0,6.1664,6.1658,6.1661,6.1662,6.1664,6.1665,6.1663,6.1667,6.165,6.1654,6.1659,6.166,6.1663,6.1667,6.1667,6.1663,6.1648,6.1646,6.165,6.1654,6.1657,6.1654,6.1589,6.1645,6.1644,6.1644,6.1643,6.1643,6.1705,6.1713,6.1708,6.1712,6.1709,6.1708,6.1715,6.1707,6.1711,6.1711,6.1702,6.1709,6.1704,6.1703,6.17,6.1705,6.1695,6.1701,6.1702,6.1704,6.1706,6.1658,6.1705,6.1705,6.1705,6.1705,6.1705,0,6.1756,6.1752,6.1756,6.1754,6.1757,6.1743,6.1741,6.1745,6.1751,6.1748,6.175,6.1755,6.1758,6.1749,6.175,6.1756,6.1749,6.1757,6.1756,6.1755,6.1715,6.1711,6.1762,6.1762,6.1762,6.1762,6.1762,6.1762,6.1784,6.1796,6.1789,6.18,6.1795,6.1801,6.1801,6.18,6.1797,6.1804,6.1806,6.18,6.1795,6.1796,6.1798,6.1795,6.1796,6.1806,6.1801,6.1764,6.1758,6.1752,6.1748,6.1807,6.1807,6.184,6.184,6.184]}]]